Regional Weather Roundup
Issued by NWS

Home | Current Version | Previous Version | Graphics & Text | Print | Product List | Glossary On
Versions: 1 2 3 4 5 6 7 8 9 10 11 12 13 14 15 16 17 18 19 20 21 22 23 24 25 26 27 28 29 30 31 32 33 34 35 36 37 38 39 40 41 42 43 44 45 46 47 48 49 50
000
ASUS43 KFSD 271810
RWRSD

WEATHER ROUNDUP FOR SOUTH DAKOTA
NATIONAL WEATHER SERVICE SIOUX FALLS SD
100 PM CDT TUE SEP 27 2016

NOTE: "FAIR" INDICATES FEW OR NO CLOUDS BELOW 12,000 FEET WITH NO
SIGNIFICANT WEATHER AND/OR OBSTRUCTIONS TO VISIBILITY.


SDZ001>005-009-010-012>017-271900-
NORTHWEST AND NORTH CENTRAL SOUTH DAKOTA

CITY           SKY/WX    TMP DP  RH WIND       PRES   REMARKS
BUFFALO          N/A     76  47  35 NW10      29.95F
MOBRIDGE       SUNNY     70  42  36 NW7       29.95F
$$

SDZ012>016-024>037-041>051-057-063-072>074-271900-
SOUTHWEST AND SOUTH CENTRAL SOUTH DAKOTA

CITY           SKY/WX    TMP DP  RH WIND       PRES   REMARKS
RAPID CTY ARPT SUNNY     79  42  26 VRB7      30.04F
PIERRE         SUNNY     73  44  35 W8        29.95F
CUSTER         SUNNY     75  32  20 NW13      30.16F
ELLSWORTH AFB  SUNNY     78  42  28 NW5       30.04F
PHILIP         SUNNY     79  45  29 W10G17    29.98F
PINE RIDGE     SUNNY     76  45  33 W8        30.07F
WINNER         FAIR      79  43  27 W15       29.98F
$$

SDZ004>011-016>023-039-040-271900-
NORTHEAST SOUTH DAKOTA

CITY           SKY/WX    TMP DP  RH WIND       PRES   REMARKS
ABERDEEN       SUNNY     71  36  27 NW16      29.94F
WATERTOWN      SUNNY     65  37  35 NW17G24   29.91F
BROOKINGS      SUNNY     66  39  37 NW16      29.91
SISSETON         N/A     66  32  28 N20G28    29.89F
$$

SDZ017-020-022-023-036>040-048>070-271900-
SOUTHEAST SOUTH DAKOTA

CITY           SKY/WX    TMP DP  RH WIND       PRES   REMARKS
SIOUX FALLS    SUNNY     70  41  34 NW15G24   29.93F
HURON          SUNNY     71  41  33 NW9       29.93F
CHAMBERLAIN    SUNNY     76  46  35 W6        29.97F
MITCHELL       SUNNY     74  40  29 NW14G24   29.95F
YANKTON        SUNNY     72  43  35 W16G22    29.95F
$$

ABBREVIATIONS USED IN REMARKS
   TC - TEMPERATURE IN CELSIUS
  WCI - WIND CHILL INDEX
   HX - HEAT INDEX
  VSB - VISIBILITY





USA.gov is the U.S. government's official web portal to all federal, state and local government web resources and services.